Tracking 17886 objects as of 9-December-2016
HD Live streaming from Space Station
objects crossing your sky now

SL-8 R/B

Track SL-8 R/B now!
10-day predictions


NORAD ID: 13917
Int'l Code: 1983-021B
Perigee: 960.5 km
Apogee: 1,004.2 km
Inclination: 82.9 °
Period: 104.6 minutes
Semi major axis: 7353 km
RCS: 4.8067 m2 (large)
Launch date: March 24, 1983
Source: Commonwealth of Independent States (former USSR) (CIS)
Launch site: PLESETSK MISSILE AND SPACE COMPLEX (PKMTR)

Note: This is a ROCKET BODY
Your satellite tracking list
Your tracking list is empty





NASA's NSSDC Master Catalog

Two Line Element Set (TLE):
1 13917U 83021B   16343.76750330 -.00000009 +00000-0 -24725-4 0  9998
2 13917 082.9437 028.2889 0029669 064.6268 072.7878 13.76809505693121
Source of the keplerian elements: AFSPC